Regional Weather Roundup
Issued by NWS

Home | Current Version | Previous Version | Text Only | Print | Product List | Glossary On
Versions: 1 2 3 4 5 6 7 8 9 10 11 12 13 14 15 16 17 18 19 20 21 22 23 24 25 26 27 28 29 30 31 32 33 34 35 36 37 38 39 40 41 42 43 44 45 46 47 48 49 50
000
ASUS43 KOAX 211802
RWRNE

WEATHER ROUNDUP FOR NEBRASKA
NATIONAL WEATHER SERVICE OMAHA NE
100 PM CDT SAT APR 21 2018

NOTES: SATELLITE DATA IS BEING USED TO AUGMENT CLOUD COVER ABOVE
       12000 FEET.
       "FAIR" INDICATES FEW OR NO CLOUDS BELOW 12,000 FEET WITH NO
       SIGNIFICANT WEATHER AND/OR OBSTRUCTIONS TO VISIBILITY.


NEZ001>004-019>022-054>056-211900-
NEBRASKA PANHANDLE

CITY           SKY/WX    TMP DP  RH WIND       PRES   REMARKS
SCOTTSBLUFF    LGT RAIN  38  38 100 SE5       30.22S WCI  34
6HR MIN TEMP:  34; 6HR MAX TEMP:  39; 6HR PCP:  0.03;

ALLIANCE       CLOUDY    37  36  96 SE8       30.22S WCI  31
6HR MIN TEMP:  32; 6HR MAX TEMP:  38; 6HR PCP:  0.08;

CHADRON        LGT RAIN  37  35  92 S6        30.23F WCI  32
6HR MIN TEMP:  36; 6HR MAX TEMP:  40; 6HR PCP:  0.08;

GORDON         LGT RAIN  41  37  87 SE5       30.23S
6HR MIN TEMP:  37; 6HR MAX TEMP:  41; 6HR PCP:  0.01;

KIMBALL        RAIN      36  34  93 CALM      30.20S
SIDNEY         CLOUDY    37  33  85 E6        30.22S WCI  32
6HR MIN TEMP:  33; 6HR MAX TEMP:  37; 6HR PCP: TRACE;

$$

NEZ057>060-069>072-079>082-211900-
SOUTHWEST NEBRASKA

CITY           SKY/WX    TMP DP  RH WIND       PRES   REMARKS
NORTH PLATTE   CLOUDY    43  38  82 E13       30.25S
6HR MIN TEMP:  39; 6HR MAX TEMP:  44; 6HR PCP:  0.07;

IMPERIAL       CLOUDY    40  39  97 NE6       30.24R
6HR MIN TEMP:  38; 6HR MAX TEMP:  41; 6HR PCP:  0.03;

LEXINGTON      CLOUDY    45  39  82 E9        30.25S
MCCOOK         CLOUDY    44  41  89 NE13      30.22S
6HR MIN TEMP:  40; 6HR MAX TEMP:  44;

OGALLALA       CLOUDY    40  38  92 E5        30.24F
$$

NEZ005>010-023>029-035>040-094-211900-
NORTH CENTRAL NEBRASKA

CITY           SKY/WX    TMP DP  RH WIND       PRES   REMARKS
VALENTINE      LGT RAIN  43  39  86 S8        30.29F
6HR MIN TEMP:  40; 6HR MAX TEMP:  43; 6HR PCP:  0.04;

AINSWORTH      DRIZZLE   41  40  95 CALM      30.30S
BROKEN BOW     CLOUDY    44  37  76 E10       30.26S
6HR MIN TEMP:  40; 6HR MAX TEMP:  44; 6HR PCP:  0.08;

O`NEILL        CLOUDY    46  39  74 N10       30.31F
ORD            CLOUDY    45  35  68 E9        30.27F
6HR MIN TEMP:  40; 6HR MAX TEMP:  45; 6HR PCP: TRACE;

THEDFORD       LGT RAIN  42  39  88 E9        30.28S
$$

NEZ041-046>049-061>064-073>077-083>087-211900-
SOUTH CENTRAL NEBRASKA

CITY           SKY/WX    TMP DP  RH WIND       PRES   REMARKS
GRAND ISLAND   CLOUDY    44  40  85 E7        30.26F
6HR MIN TEMP:  42; 6HR MAX TEMP:  44; 6HR PCP:  0.01;

AURORA         CLOUDY    44  42  90 SE6       30.26F
HASTINGS       CLOUDY    43  41  93 NE8       30.25F
6HR MIN TEMP:  41; 6HR MAX TEMP:  43;

HEBRON         CLOUDY    46  42  88 E9        30.25F
HOLDREGE       CLOUDY    42  41  94 NE9       30.23S
KEARNEY        LGT RAIN  43  38  82 NE7       30.25F
YORK             N/A     45  45 100 CALM      30.27S
$$

NEZ011>018-030>034-042>045-211900-
NORTHEAST NEBRASKA

CITY           SKY/WX    TMP DP  RH WIND       PRES   REMARKS
NORFOLK        CLOUDY    49  31  49 NE7       30.26F
6HR MIN TEMP:  43; 6HR MAX TEMP:  49;

ALBION         CLOUDY    48  32  54 NW3       30.27F
BLAIR          CLOUDY    52  30  43 NE9       30.27F
COLUMBUS       CLOUDY    48  31  51 E8        30.30S
FREMONT        CLOUDY    52  29  41 E5        30.29F
TEKAMAH        CLOUDY    54  28  36 SE8       30.30S
6HR MIN TEMP:  42; 6HR MAX TEMP:  54;

WAYNE          CLOUDY    47  34  62 NE6       30.31S
$$

NEZ050>053-065>068-078-088>093-211900-
SOUTHEAST NEBRASKA

CITY           SKY/WX    TMP DP  RH WIND       PRES   REMARKS
LINCOLN        CLOUDY    49  35  58 SE5       30.30S
6HR MIN TEMP:  47; 6HR MAX TEMP:  50; 6HR PCP: TRACE;

OMAHA EPPLEY   CLOUDY    54  27  35 E10       30.29F
6HR MIN TEMP:  49; 6HR MAX TEMP:  54;

BEATRICE       LGT RAIN  47  43  87 E6        30.28F
FALLS CITY     LGT RAIN  46  43  89 NW7       30.27F
6HR MIN TEMP:  44; 6HR MAX TEMP:  49; 6HR PCP:  0.06;

NEBRASKA CITY  RAIN      50  38  63 S12       30.30S
PLATTSMOUTH    CLOUDY    52  28  38 NE3       30.28F
$$

NEZ044-045-051>053-067-211900-
OMAHA AREA

CITY           SKY/WX    TMP DP  RH WIND       PRES   REMARKS
OMAHA EPPLEY   CLOUDY    54  27  35 E10       30.29F
6HR MIN TEMP:  49; 6HR MAX TEMP:  54;

BLAIR          CLOUDY    52  30  43 NE9       30.27F
FREMONT        CLOUDY    52  29  41 E5        30.29F
MILLARD        CLOUDY    53  31  44 SE3       30.29S
OFFUTT AFB     CLOUDY    54  29  38 E8        30.28F
PLATTSMOUTH    CLOUDY    52  28  38 NE3       30.28F
WAHOO          CLOUDY    52  25  34 E5        30.28F
$$




USA.gov is the U.S. government's official web portal to all federal, state and local government web resources and services.